Change the Weather History Date:

Monday, December 23, 2013

  Actual Average (PABN) Record (PABN)
Temperature  
Mean Temperature -7 °F -  
Max Temperature 10 °F 5 °F 32 °F (1999)
Min Temperature -26 °F 0 °F -29 °F (2012)
Degree Days  
Heating Degree Days 72    
Moisture  
Dew Point -2 °F    
Average Humidity 76    
Maximum Humidity 84    
Minimum Humidity 70    
Precipitation  
Precipitation 0.03 in - - ()
Sea Level Pressure  
Sea Level Pressure 29.88 in    
Wind  
Wind Speed 1 mph (NW)    
Max Wind Speed 7 mph    
Max Gust Speed -    
Visibility 4 miles    
Events Snow    
Averages and records for this station are not official NWS values.
T = Trace of Precipitation, MM = Missing Value Source: NWS Daily Summary

Daily Weather History Graph

Daily Weather History Graph

Search for Another Location

Airport or City:

Trip Planner

Search our weather history database for the weather conditions in past years. The results will help you decide how hot, cold, wet, or windy it might be!

Date:

Astronomy

Dec. 23, 2013 Rise Set
Actual Time 10:31 AM AKST 2:16 PM AKST
Civil Twilight 9:06 AM AKST 3:41 PM AKST
Nautical Twilight 7:55 AM AKST 4:52 PM AKST
Astronomical Twilight 6:53 AM AKST 5:54 PM AKST
Moon 11:16 PM AKST (12/23) 11:29 AM AKST (12/23)
Length of Visible Light 6h 34m
Length of Day
3h 44m
Waning Gibbous, 66% of the Moon is Illuminated
Dec 23
Waning Gibbous
Dec 25
Last Quarter
Jan 1
New
Jan 7
First Quarter
Jan 15
Full

Hourly Weather History & Observations

Time (AKST) Temp. Windchill Dew Point Humidity Pressure Visibility Wind Dir Wind Speed Gust Speed Precip Events Conditions
12:00 AM 10.0 °F - 5.0 °F 80% 29.63 in 2.5 mi Calm Calm - 0.00 in Snow Light Snow
12:12 AM 9.0 °F - 5.0 °F 84% 29.64 in 3.0 mi Calm Calm - 0.00 in Snow Light Snow
12:27 AM 9.0 °F - 5.0 °F 84% 29.64 in 2.5 mi Calm Calm - 0.00 in Snow Light Snow
12:53 AM 10.0 °F - 5.0 °F 80% 29.70 in 2.0 mi Calm Calm - 0.00 in Snow Light Snow
1:22 AM 9.0 °F - 3.9 °F 80% 29.65 in 4.0 mi Calm Calm - 0.00 in Snow Light Snow
1:53 AM 9.0 °F - 3.9 °F 80% 29.71 in 3.0 mi Calm Calm - 0.00 in Snow Light Snow
3:53 AM 10.9 °F - 5.0 °F 77% 29.73 in 3.0 mi Calm Calm - 0.00 in Snow Light Snow
4:53 AM 10.9 °F 4.7 °F 6.1 °F 81% 29.74 in 3.0 mi WNW 3.5 mph - 0.00 in Snow Light Snow
5:53 AM 10.0 °F - 5.0 °F 80% 29.76 in 10.0 mi Calm Calm - 0.00 in   Overcast
6:43 AM 10.0 °F 3.6 °F 5.0 °F 80% 29.71 in 2.5 mi NW 3.5 mph - 0.00 in Snow Light Snow
6:53 AM 10.9 °F - 5.0 °F 77% 29.77 in 1.5 mi Calm Calm - 0.00 in Snow Light Snow
7:53 AM 10.0 °F - 5.0 °F 80% 29.79 in 1.8 mi Calm Calm - 0.01 in Snow Light Snow
8:22 AM 10.0 °F 3.6 °F 5.0 °F 80% 29.74 in 1.0 mi NNW 3.5 mph - 0.01 in Snow Light Snow
8:53 AM 10.0 °F - 5.0 °F 80% 29.81 in 1.5 mi Calm Calm - 0.01 in Snow Light Snow
9:20 AM 10.0 °F - 3.9 °F 76% 29.76 in 2.5 mi Calm Calm - 0.01 in Snow Light Snow
9:32 AM 10.0 °F - 5.0 °F 80% 29.76 in 2.5 mi Calm Calm - 0.01 in Snow Light Snow
9:53 AM 10.0 °F - 3.9 °F 76% 29.83 in 2.0 mi Calm Calm - 0.01 in Snow Light Snow
10:03 AM 10.0 °F - 3.9 °F 76% 29.78 in 1.5 mi Calm Calm - 0.00 in Snow Light Snow
10:31 AM 10.0 °F 3.6 °F 3.9 °F 76% 29.79 in 2.0 mi Variable 3.5 mph - 0.00 in Snow Light Snow
10:41 AM 9.0 °F 0.6 °F 3.9 °F 80% 29.80 in 1.5 mi NW 4.6 mph - 0.00 in Snow Light Snow
10:53 AM 9.0 °F -2.2 °F 3.0 °F 77% 29.86 in 1.2 mi NW 6.9 mph - 0.00 in Snow Light Snow
11:30 AM 9.0 °F - 3.0 °F 77% 29.82 in 2.0 mi Calm Calm - 0.00 in Snow Light Snow
11:53 AM 8.1 °F - 3.0 °F 80% 29.90 in 2.5 mi Calm Calm - 0.00 in Snow Light Snow
12:13 PM 8.1 °F - 1.9 °F 76% 29.85 in 1.8 mi Calm Calm - 0.00 in Snow Light Snow
12:53 PM 8.1 °F -2.0 °F 1.0 °F 73% 29.93 in 1.2 mi Variable 5.8 mph - 0.00 in Snow Light Snow
1:17 PM 8.1 °F -0.5 °F -0.0 °F 70% 29.88 in 2.5 mi North 4.6 mph - 0.00 in Snow Light Snow
1:23 PM 8.1 °F -2.0 °F -0.0 °F 70% 29.88 in 3.0 mi NNW 5.8 mph - 0.00 in   Haze
1:30 PM 8.1 °F 1.4 °F -0.0 °F 70% 29.88 in 2.5 mi North 3.5 mph - 0.00 in Snow Light Snow
1:42 PM 7.0 °F 0.1 °F -0.0 °F 73% 29.89 in 1.8 mi Variable 3.5 mph - 0.00 in Snow Light Snow
1:51 PM 6.8 °F -0.1 °F -0.4 °F 72% 29.89 in 2.5 mi North 3.5 mph - 0.00 in Snow Light Snow
1:53 PM 7.0 °F -1.7 °F -0.0 °F 73% 29.96 in 2.5 mi North 4.6 mph - 0.00 in Snow Light Snow
2:06 PM 7.0 °F - -0.0 °F 73% 29.90 in 3.0 mi Calm Calm - 0.00 in Snow Light Snow
2:34 PM 6.1 °F - -0.0 °F 76% 29.91 in 2.0 mi Calm Calm - 0.00 in Snow Light Snow
2:43 PM 6.1 °F - -0.0 °F 76% 29.91 in 1.8 mi Calm Calm - 0.00 in Snow Light Snow
2:53 PM 6.1 °F - -0.0 °F 76% 29.98 in 2.0 mi Calm Calm - 0.00 in Snow Light Snow
3:27 PM 3.9 °F - -0.9 °F 80% 29.93 in 4.0 mi Calm Calm - 0.00 in   Haze
3:53 PM 1.9 °F -5.6 °F -4.0 °F 76% 30.01 in 5.0 mi SSE 3.5 mph - 0.00 in   Haze
4:16 PM 1.0 °F - -5.1 °F 75% 29.95 in 5.0 mi Calm Calm - N/A   Haze
4:53 PM 1.9 °F - -4.0 °F 76% 30.03 in 2.5 mi Calm Calm - 0.00 in Snow Light Snow
5:20 PM 1.0 °F - -5.1 °F 75% 29.98 in 3.0 mi Calm Calm - 0.00 in Snow Light Snow
5:44 PM -2.0 °F - -8.0 °F 76% 29.99 in 10.0 mi Calm Calm - 0.00 in   Overcast
5:53 PM -4.0 °F - -9.0 °F 79% 30.07 in 10.0 mi Calm Calm - 0.00 in   Overcast
6:53 PM -9.0 °F - -16.1 °F 71% 30.09 in 10.0 mi Calm Calm - N/A   Partly Cloudy
7:53 PM -15.0 °F - -20.9 °F 75% 30.13 in 10.0 mi Calm Calm - N/A   Clear
8:53 PM -17.0 °F - -24.0 °F 70% 30.14 in 10.0 mi Calm Calm - N/A   Clear
9:53 PM -20.9 °F -31.7 °F -27.9 °F 70% 30.17 in 10.0 mi South 3.5 mph - N/A   Clear
10:53 PM -24.0 °F -35.2 °F -29.9 °F 74% 30.20 in 10.0 mi SSW 3.5 mph - N/A   Clear
11:53 PM -26.0 °F - -32.1 °F 73% 30.24 in 10.0 mi Calm Calm - N/A   Clear